, AK

(GMT )
Hydaburg

Weather History for PAHY - October, 2013

Change the Weather History Date:

Friday, October 18, 2013

  Actual Average Record
Temperature  
Mean Temperature 48 °F -  
Max Temperature 50 °F 48 °F 69 °F (2010)
Min Temperature 46 °F 41 °F 33 °F (2004)
Degree Days  
Heating Degree Days 17    
Moisture  
Dew Point 42 °F    
Average Humidity 79    
Maximum Humidity 93    
Minimum Humidity 71    
Precipitation  
Precipitation 0.00 in - - ()
Sea Level Pressure  
Sea Level Pressure 30.31 in    
Wind  
Wind Speed 1 mph (North)    
Max Wind Speed 7 mph    
Max Gust Speed -    
Visibility 10 miles    
Events      
Averages and records for this station are not official NWS values.
T = Trace of Precipitation, MM = Missing Value Source: NWS Daily Summary

Daily Weather History Graph

Daily Weather History Graph

Search for Another Location

Airport or City:

Trip Planner

Search our weather history database for the weather conditions in past years. The results will help you decide how hot, cold, wet, or windy it might be!

Date:

Astronomy

Oct. 18, 2013 Rise Set
Actual Time 7:26 AM AKDT 5:42 PM AKDT
Civil Twilight 6:49 AM AKDT 6:19 PM AKDT
Nautical Twilight 6:07 AM AKDT 7:01 PM AKDT
Astronomical Twilight 5:25 AM AKDT 7:43 PM AKDT
Moon 5:31 PM AKDT (10/18) 7:11 AM AKDT (10/18)
Length of Visible Light 11h 30m
Length of Day
10h 16m
Full, 100% of the Moon is Illuminated
Oct 18
Full
Oct 18
Full
Oct 26
Last Quarter
Nov 3
New
Nov 9
First Quarter

Hourly Weather History & Observations

Time (AKDT) Temp. Windchill Dew Point Humidity Pressure Visibility Wind Dir Wind Speed Gust Speed Precip Events Conditions
12:16 AM 46.4 °F - 42.8 °F 87% 30.32 in 10.0 mi Calm Calm - N/A   Overcast
12:36 AM 46.4 °F - 42.8 °F 87% 30.32 in 10.0 mi Calm Calm - N/A   Overcast
12:56 AM 48.2 °F - 42.8 °F 82% 30.33 in 10.0 mi Calm Calm - N/A   Overcast
1:16 AM 46.4 °F - 42.8 °F 87% 30.33 in 10.0 mi Calm Calm - N/A   Overcast
1:36 AM 48.2 °F - 42.8 °F 82% 30.34 in 10.0 mi NW 6.9 mph - N/A   Overcast
1:56 AM 48.2 °F - 42.8 °F 82% 30.33 in 10.0 mi Calm Calm - N/A   Overcast
2:16 AM 48.2 °F - 41.0 °F 76% 30.34 in 10.0 mi West 3.5 mph - N/A   Overcast
2:36 AM 48.2 °F - 41.0 °F 76% 30.35 in 10.0 mi NW 5.8 mph - N/A   Overcast
2:56 AM 48.2 °F - 42.8 °F 82% 30.35 in 10.0 mi Calm Calm - N/A   Overcast
3:16 AM 46.4 °F - 41.0 °F 81% 30.35 in 10.0 mi Calm Calm - N/A   Overcast
3:36 AM 46.4 °F 45.2 °F 41.0 °F 81% 30.34 in 10.0 mi North 3.5 mph - N/A   Overcast
3:56 AM 46.4 °F 45.2 °F 41.0 °F 81% 30.35 in 10.0 mi North 3.5 mph - N/A   Overcast
4:16 AM 48.2 °F - 39.2 °F 71% 30.34 in 10.0 mi NNW 5.8 mph - N/A   Overcast
4:36 AM 46.4 °F - 41.0 °F 81% 30.34 in 10.0 mi Calm Calm - N/A   Overcast
4:56 AM 46.4 °F - 41.0 °F 81% 30.33 in 10.0 mi Calm Calm - N/A   Overcast
5:16 AM 46.4 °F 42.9 °F 41.0 °F 81% 30.33 in 10.0 mi North 6.9 mph - N/A   Overcast
5:36 AM 46.4 °F - 41.0 °F 81% 30.33 in 10.0 mi Calm Calm - N/A   Overcast
5:56 AM 46.4 °F - 41.0 °F 81% 30.32 in 10.0 mi Calm Calm - N/A   Overcast
6:16 AM 46.4 °F 45.2 °F 41.0 °F 81% 30.32 in 10.0 mi NE 3.5 mph - N/A   Overcast
6:36 AM 46.4 °F - 41.0 °F 81% 30.32 in 8.0 mi Calm Calm - N/A   Overcast
6:56 AM 46.4 °F - 39.2 °F 76% 30.32 in 10.0 mi Calm Calm - N/A   Overcast
7:16 AM 46.4 °F - 39.2 °F 76% 30.32 in 10.0 mi Calm Calm - N/A   Overcast
7:36 AM 46.4 °F - 39.2 °F 76% 30.33 in 10.0 mi Calm Calm - N/A   Overcast
7:56 AM 46.4 °F - 39.2 °F 76% 30.33 in 10.0 mi Calm Calm - N/A   Overcast
8:16 AM 46.4 °F 45.2 °F 41.0 °F 81% 30.33 in 10.0 mi NNE 3.5 mph - N/A   Overcast
8:36 AM 46.4 °F - 41.0 °F 81% 30.34 in 10.0 mi Calm Calm - N/A   Overcast
8:56 AM 46.4 °F 44.3 °F 39.2 °F 76% 30.34 in 10.0 mi NNE 4.6 mph - N/A   Overcast
9:16 AM 46.4 °F - 39.2 °F 76% 30.34 in 10.0 mi Calm Calm - N/A   Overcast
9:36 AM 46.4 °F - 39.2 °F 76% 30.34 in 10.0 mi Calm Calm - N/A   Overcast
10:16 AM 48.2 °F - 39.2 °F 71% 30.34 in 10.0 mi Calm Calm - N/A   Overcast
10:36 AM 48.2 °F - 39.2 °F 71% 30.34 in 10.0 mi Calm Calm - N/A   Overcast
10:56 AM 48.2 °F - 39.2 °F 71% 30.34 in 10.0 mi Calm Calm - N/A   Overcast
11:16 AM 48.2 °F - 39.2 °F 71% 30.34 in 10.0 mi Calm Calm - N/A   Overcast
11:36 AM 48.2 °F - 39.2 °F 71% 30.34 in 10.0 mi Calm Calm - N/A   Overcast
11:56 AM 48.2 °F - 39.2 °F 71% 30.34 in 10.0 mi Calm Calm - N/A   Overcast
12:16 PM 48.2 °F - 39.2 °F 71% 30.34 in 10.0 mi Calm Calm - N/A   Overcast
12:36 PM 48.2 °F - 39.2 °F 71% 30.33 in 10.0 mi Calm Calm - N/A   Overcast
12:56 PM 48.2 °F - 39.2 °F 71% 30.33 in 10.0 mi Calm Calm - N/A   Overcast
1:16 PM 48.2 °F - 39.2 °F 71% 30.33 in 10.0 mi Calm Calm - N/A   Overcast
1:36 PM 48.2 °F - 39.2 °F 71% 30.32 in 10.0 mi Calm Calm - N/A   Overcast
1:56 PM 48.2 °F - 41.0 °F 76% 30.33 in 10.0 mi Calm Calm - N/A   Overcast
2:16 PM 48.2 °F - 41.0 °F 76% 30.33 in 10.0 mi Calm Calm - N/A   Overcast
2:36 PM 50.0 °F - 41.0 °F 71% 30.32 in 10.0 mi Calm Calm - N/A   Scattered Clouds
2:56 PM 50.0 °F - 41.0 °F 71% 30.32 in 10.0 mi West 3.5 mph - N/A   Scattered Clouds
3:16 PM 50.0 °F - 42.8 °F 76% 30.31 in 10.0 mi Calm Calm - N/A   Mostly Cloudy
3:36 PM 50.0 °F - 42.8 °F 76% 30.31 in 10.0 mi Calm Calm - N/A   Mostly Cloudy
3:56 PM 50.0 °F - 42.8 °F 76% 30.31 in 10.0 mi Calm Calm - N/A   Mostly Cloudy
4:16 PM 50.0 °F - 42.8 °F 76% 30.31 in 10.0 mi Calm Calm - N/A   Overcast
4:36 PM 50.0 °F - 42.8 °F 76% 30.29 in 10.0 mi Calm Calm - N/A   Overcast
4:56 PM 50.0 °F - 42.8 °F 76% 30.29 in 10.0 mi Calm Calm - N/A   Overcast
5:16 PM 48.2 °F - 42.8 °F 82% 30.29 in 10.0 mi Calm Calm - N/A   Overcast
5:36 PM 50.0 °F - 42.8 °F 76% 30.29 in 10.0 mi Calm Calm - N/A   Mostly Cloudy
5:56 PM 48.2 °F - 44.6 °F 87% 30.29 in 10.0 mi Calm Calm - N/A   Mostly Cloudy
6:16 PM 48.2 °F - 42.8 °F 82% 30.28 in 10.0 mi Calm Calm - N/A   Overcast
6:36 PM 48.2 °F - 42.8 °F 82% 30.29 in 10.0 mi Calm Calm - N/A   Overcast
6:56 PM 48.2 °F - 42.8 °F 82% 30.28 in 10.0 mi East 3.5 mph - N/A   Overcast
7:16 PM 48.2 °F - 42.8 °F 82% 30.28 in 10.0 mi Calm Calm - N/A   Mostly Cloudy
7:36 PM 48.2 °F - 42.8 °F 82% 30.28 in 10.0 mi Calm Calm - N/A   Overcast
7:56 PM 48.2 °F - 42.8 °F 82% 30.28 in 10.0 mi Calm Calm - N/A   Overcast
8:16 PM 48.2 °F - 42.8 °F 82% 30.27 in 10.0 mi Calm Calm - N/A   Overcast
8:36 PM 48.2 °F - 44.6 °F 87% 30.27 in 10.0 mi Calm Calm - N/A   Overcast
8:56 PM 48.2 °F - 44.6 °F 87% 30.28 in 5.0 mi Calm Calm - N/A   Overcast
9:16 PM 48.2 °F - 44.6 °F 87% 30.27 in 6.0 mi Calm Calm - N/A   Overcast
9:36 PM 46.4 °F - 42.8 °F 87% 30.27 in 10.0 mi Calm Calm - N/A   Overcast
9:56 PM 48.2 °F - 42.8 °F 82% 30.27 in 10.0 mi Calm Calm - N/A   Overcast
10:16 PM 48.2 °F - 44.6 °F 87% 30.27 in 10.0 mi Calm Calm - N/A   Overcast
10:36 PM 48.2 °F - 42.8 °F 82% 30.27 in 10.0 mi Calm Calm - N/A   Overcast
11:16 PM 46.4 °F - 44.6 °F 93% 30.26 in 10.0 mi Calm Calm - N/A   Overcast
11:36 PM 48.2 °F - 44.6 °F 87% 30.26 in 10.0 mi Calm Calm - N/A   Overcast
11:56 PM 48.2 °F - 44.6 °F 87% 30.26 in 10.0 mi Calm Calm - N/A   Overcast